This is the latest recevied weather packets stored in our database for station/object KU9TRY. If no packets are shown the sender has not sent any weather packets the latest 10 day(s).
| Time | Temp. | Humidity | Pressure | Rain* | Wind** | Luminosity | Snow |
|---|---|---|---|---|---|---|---|
| 1788028036 | 31.67° C | 49% | 1019.4 hPa | 0 mm | - | 149 W/m² | - |
| 1788027732 | 32.22° C | 48% | 1019.6 hPa | 0 mm | - | 145 W/m² | - |
| 1788027431 | 32.78° C | 47% | 1019.7 hPa | 0 mm | - | 142 W/m² | - |
| 1788027126 | 32.78° C | 47% | 1019.8 hPa | 0 mm | - | 168 W/m² | - |
| 1788026825 | 32.78° C | 47% | 1019.7 hPa | 0 mm | - | 176 W/m² | - |
| 1788026521 | 32.78° C | 47% | 1020 hPa | 0 mm | - | 180 W/m² | - |
| 1788026220 | 32.22° C | 52% | 1020 hPa | 0 mm | - | 195 W/m² | - |
| 1788025920 | 32.22° C | 50% | 1020 hPa | 0 mm | - | 238 W/m² | - |
| 1788025615 | 32.22° C | 46% | 1020.2 hPa | 0 mm | - | 190 W/m² | - |
| 1788025314 | 32.22° C | 45% | 1020.1 hPa | 0 mm | - | 189 W/m² | - |
| 1788025014 | 32.78° C | 43% | 1020.2 hPa | 0 mm | - | 965 W/m² | - |
| 1788024709 | 32.78° C | 43% | 1020.1 hPa | 0 mm | - | 941 W/m² | - |
| 1788024405 | 32.78° C | 44% | 1020.1 hPa | 0 mm | - | 986 W/m² | - |
| 1788024100 | 32.22° C | 47% | 1020.2 hPa | 0 mm | - | 980 W/m² | - |
| 1788023795 | 32.78° C | 47% | 1020.2 hPa | 0 mm | - | 294 W/m² | - |
| 1788023491 | 32.22° C | 49% | 1020.5 hPa | 0 mm | - | 963 W/m² | - |
| 1788023186 | 32.22° C | 51% | 1020.4 hPa | 0 mm | - | 951 W/m² | - |
| 1788022886 | 32.22° C | 49% | 1020.7 hPa | 0 mm | - | 966 W/m² | - |
| 1788022583 | 31.67° C | 53% | 1020.5 hPa | 0 mm | - | 941 W/m² | - |
| 1788022278 | 32.22° C | 53% | 1020.6 hPa | 0 mm | - | 923 W/m² | - |
| 1788021977 | 31.67° C | 56% | 1020.7 hPa | 0 mm | - | 905 W/m² | - |
| 1788021672 | 31.67° C | 54% | 1020.5 hPa | 0 mm | - | 915 W/m² | - |
| 1788021369 | 31.11° C | 55% | 1020.8 hPa | 0 mm | - | 885 W/m² | - |
| 1788021065 | 31.67° C | 56% | 1020.9 hPa | 0 mm | - | 890 W/m² | - |
| 1788020761 | 31.11° C | 55% | 1021 hPa | 0 mm | - | 884 W/m² | - |
* Rain latest hour (hover to see other rain measurements)
** Current wind speed in m/s (hover to see current wind gust speed)